Back to catalog

STARLINK-36398

AliveCommunicationsSSO
NORAD 67562·PAYLOAD·🇺🇸 United States

Launched Jan 25, 2026 from Vandenberg Space Force Base

Loading…

Next Passes (next 24 hours)

TLE

FreshSource: CelesTrak SupGP

Epoch: Sep 14, 2026, 22:43 UTC

1 67562C 26016B   26257.94701389 -.00004341  00000+0 -13473-3 0  2575
2 67562  97.2848 316.7424 0000967  96.8817 240.9769 15.33449224    19

Track STARLINK-36398 in real time with AllMySat

Download on the App Store